Voltar ao catálogo

COSMOS 249 DEB

AtivoLEO
NORAD 15775·DEBRIS·🇷🇺 Russia

Lançado Oct 20, 1968 de Baikonur Cosmodrome

Loading…

Próximas Passagens (próximas 24 horas)

TLE

AtualizadoSource: Space-Track

Época: Sep 13, 2026, 21:12 UTC

1 15775U 68091DA  26256.88363619  .00001582  00000-0  19484-2 0  9998
2 15775  62.2970 219.0929 0668442 346.9150  11.5213 12.99436397579112

Acompanhe COSMOS 249 DEB em tempo real com AllMySat

Download on the App Store